Tracking 19176 objects as of 25-May-2018
HD Live streaming from Space Station
objects crossing your sky now

COSMOS 2251 DEB

Track COSMOS 2251 DEB now!
10-day predictions


NORAD ID: 34473
Int'l Code: 1993-036TS
Perigee: 728.7 km
Apogee: 763.7 km
Inclination: 74.0 °
Period: 99.6 minutes
Semi major axis: 7117 km
RCS: 0.0156 m2 (small)
Launch date: June 16, 1993
Source: Commonwealth of Independent States (former USSR) (CIS)
Launch site: PLESETSK MISSILE AND SPACE COMPLEX (PKMTR)

Note: This is SATELLITE DEBRIS
aabbcc
Your satellite tracking list
Your tracking list is empty




NASA's NSSDC Master Catalog

Two Line Element Set (TLE):
1 34473U 93036TS  18144.75029789 +.00000902 +00000-0 +26037-3 0  9999
2 34473 074.0320 261.6921 0024544 266.7909 215.9587 14.45899925486140
Source of the keplerian elements: AFSPC